This demonstration page uses our WeatherBlox Daily Observations layout. Learn more.

Left ArrowRight Arrow

53.62937, 11.41316

Hourly Observations for August 9, 2021

Temp ( °F °C ) Dew Point ( °F °C ) Humidity (%) Winds ( mph kmh ) Pressure ( in mb ) Visibility ( mi km ) Precip ( " mm )
6:20 am 06:20 Mostly Sunny 57 14 52 11 82 82 S 7 11 29.91 1013 7 11 N/A
6:50 am 06:50 Mostly Sunny 57 14 52 11 82 82 S 7 11 29.91 1013 7 11 N/A
7:20 am 07:20 Mostly Sunny 59 15 52 11 77 77 S 9 15 29.91 1013 7 11 N/A
7:50 am 07:50 Mostly Sunny 59 15 54 12 82 82 S 9 15 29.94 1014 7 11 N/A
8:20 am 08:20 Mostly Sunny 61 16 54 12 77 77 S 12 19 29.94 1014 7 11 N/A
8:50 am 08:50 Mostly Sunny 63 17 54 12 73 73 S 13 20 29.94 1014 7 11 N/A
9:20 am 09:20 Mostly Sunny 63 17 54 12 73 73 SSW 14 22 29.94 1014 7 11 N/A
9:50 am 09:50 Partly Cloudy 64 18 55 13 73 73 SSW 13 20 29.94 1014 30 48 N/A
10:20 am 10:20 Partly Cloudy 63 17 54 12 73 73 S 9 15 29.94 1014 30 48 N/A
10:50 am 10:50 Partly Cloudy 64 18 55 13 73 73 S 10 17 29.94 1014 30 48 N/A
11:20 am 11:20 Partly Cloudy 66 19 55 13 68 68 S 12 19 29.97 1015 30 48 N/A
11:50 am 11:50 Partly Cloudy 68 20 54 12 60 60 S 13 20 29.97 1015 30 48 N/A
12:20 pm 12:20 Partly Cloudy 68 20 55 13 64 64 S 12 19 29.97 1015 30 48 N/A
12:50 pm 12:50 Partly Cloudy 70 21 54 12 57 57 SSW 14 22 29.97 1015 30 48 N/A
1:20 pm 13:20 Partly Cloudy 70 21 52 11 53 53 S 13 20 29.97 1015 30 48 N/A
1:50 pm 13:50 Partly Cloudy 68 20 54 12 60 60 S 10 17 29.97 1015 30 48 N/A
2:20 pm 14:20 Partly Cloudy 70 21 52 11 53 53 S 14 22 29.97 1015 30 48 N/A
2:50 pm 14:50 Partly Cloudy 70 21 54 12 57 57 S 13 20 29.97 1015 30 48 N/A
3:20 pm 15:20 Partly Cloudy 68 20 52 11 56 56 S 14 22 29.97 1015 30 48 N/A
3:50 pm 15:50 Mostly Sunny 66 19 52 11 60 60 S 13 20 29.97 1015 30 48 N/A
4:20 pm 16:20 Mostly Sunny 68 20 54 12 60 60 S 12 19 29.97 1015 30 48 N/A
4:50 pm 16:50 Mostly Sunny 68 20 54 12 60 60 S 10 17 29.97 1015 30 48 N/A
5:20 pm 17:20 Mostly Sunny 70 21 54 12 57 57 S 12 19 29.97 1015 30 48 N/A
5:50 pm 17:50 Mostly Sunny 70 21 54 12 57 57 S 10 17 29.97 1015 30 48 N/A
6:20 pm 18:20 Mostly Sunny 68 20 54 12 60 60 SSE 10 17 29.97 1015 30 48 N/A
6:50 pm 18:50 Mostly Sunny 70 21 55 13 60 60 S 6 9 29.97 1015 30 48 N/A
7:20 pm 19:20 Mostly Sunny 68 20 54 12 60 60 S 8 13 29.97 1015 30 48 N/A
7:50 pm 19:50 Mostly Sunny 66 19 54 12 64 64 S 6 9 29.97 1015 7 11 N/A
8:20 pm 20:20 Mostly Sunny 66 19 54 12 64 64 SSE 5 7 29.97 1015 7 11 N/A
8:50 pm 20:50 Partly Cloudy with Showers Nearby 64 18 54 12 68 68 S 10 17 30.00 1016 30 48 N/A
9:20 pm 21:20 Mostly Cloudy with Showers 57 14 54 12 88 88 S 10 17 30.00 1016 30 48 N/A
9:50 pm 21:50 Mostly Cloudy with Light Showers 57 14 55 13 94 94 S 6 9 30.00 1016 30 48 N/A

Powered by AerisWeather